EA1AML Weather Reports


time (UTC)temp
C
wind
direction
speed
KPH
gust
KPH
rain 1hr
cm
rain 24hr
cm
rain mn
cm
humidity
%
barometer
mb
20260507090006 12 237 3.2 11.3 0.00 0.00 0.00 76 1010.7
20260507085005 13 264 4.8 11.3 0.00 0.00 0.00 75 1010.8
20260507084005 12 208 3.2 9.7 0.00 0.00 0.00 76 1010.9
20260507083005 12 261 1.6 4.8 0.00 0.00 0.00 76 1010.9
20260507082004 12 303 1.6 4.8 0.00 0.00 0.00 75 1010.9
20260507080005 12 197 1.6 3.2 0.00 0.00 0.00 79 1011.0
20260507075005 11 196 0.0 4.8 0.00 0.00 0.00 86 1011.1
20260507074004 10 196 3.2 4.8 0.00 0.00 0.00 88 1011.3
20260507073004 10 108 1.6 3.2 0.00 0.00 0.00 90 1011.3
20260507072005 9 107 0.0 1.6 0.00 0.00 0.00 90 1011.4
20260507065004 8 107 0.0 1.6 0.00 0.00 0.00 95 1011.4
20260507064004 7 108 0.0 0.0 0.00 0.00 0.00 94 1011.4
20260507063005 7 108 0.0 3.2 0.00 0.00 0.00 93 1011.5
20260507062005 7 108 1.6 4.8 0.00 0.00 0.00 92 1011.4
20260507060005 7 69 0.0 0.0 0.00 0.00 0.00 93 1011.3
20260507055005 7 69 0.0 0.0 0.00 0.00 0.00 93 1011.3
20260507053005 7 69 0.0 3.2 0.00 0.00 0.00 93 1011.3
20260507052005 7 65 3.2 4.8 0.00 0.00 0.00 93 1011.3
20260507051004 7 5 1.6 4.8 0.00 0.00 0.00 93 1011.4
20260507050005 7 6 1.6 4.8 0.00 0.00 0.00 94 1011.4
20260507045004 7 43 1.6 4.8 0.00 0.00 0.00 94 1011.4
20260507044005 7 121 0.0 0.0 0.00 0.00 0.00 94 1011.6
20260507043005 6 128 0.0 0.0 0.00 0.00 0.00 94 1011.7
20260507042005 6 136 0.0 0.0 0.00 0.00 0.00 93 1011.9
20260507041005 6 136 0.0 0.0 0.00 0.00 0.00 92 1011.9
20260507040005 7 123 0.0 0.0 0.00 0.00 0.00 92 1011.8
20260507035004 7 55 0.0 0.0 0.00 0.00 0.00 92 1011.8
20260507034005 7 55 0.0 0.0 0.00 0.00 0.00 91 1011.7
20260507032004 7 34 0.0 4.8 0.00 0.00 0.00 90 1011.8
20260507031004 7 55 0.0 0.0 0.00 0.00 0.00 91 1011.9
20260507030004 7 55 0.0 4.8 0.00 0.00 0.00 90 1011.9
20260507025004 7 186 0.0 3.2 0.00 0.00 0.00 90 1012.0
20260507023004 7 186 0.0 3.2 0.00 0.00 0.00 90 1011.9
20260507022005 7 186 0.0 3.2 0.00 0.00 0.00 90 1011.9
20260507020004 7 223 0.0 3.2 0.00 0.00 0.00 91 1012.0
20260507015005 7 223 0.0 0.0 0.00 0.00 0.00 91 1011.9
20260507014005 7 223 0.0 1.6 0.00 0.00 0.00 90 1012.0
20260507013004 7 223 0.0 1.6 0.00 0.00 0.00 90 1012.0
20260507012005 7 223 0.0 0.0 0.00 0.00 0.00 90 1012.1
20260507011004 7 223 0.0 0.0 0.00 0.00 0.00 90 1012.2
20260507004005 7 244 0.0 0.0 0.00 0.00 0.00 89 1012.2
20260507003004 7 244 0.0 0.0 0.00 0.00 0.00 88 1012.2
20260507002005 8 244 3.2 4.8 0.00 0.00 0.00 87 1012.1
20260507001004 8 248 0.0 0.0 0.00 0.00 0.00 87 1012.0
20260506235004 9 248 0.0 4.8 0.00 0.00 0.00 84 1012.0
20260506234004 10 5 0.0 1.6 0.00 0.00 0.00 82 1012.0
20260506233004 10 5 1.6 4.8 0.00 0.00 0.00 82 1012.0
20260506231005 10 61 3.2 4.8 0.00 0.00 0.00 82 1012.0
20260506230004 10 68 1.6 4.8 0.00 0.00 0.00 82 1012.1
20260506224005 10 78 1.6 9.7 0.00 0.00 0.00 82 1012.1
20260506223005 10 62 1.6 4.8 0.00 0.00 0.00 82 1012.2
20260506222004 10 68 3.2 4.8 0.00 0.00 0.00 82 1012.3
20260506221004 11 65 3.2 4.8 0.00 0.00 0.00 81 1012.4
20260506215006 11 63 1.6 4.8 0.00 0.00 0.00 80 1012.5
20260506214004 11 65 3.2 4.8 0.00 0.00 0.00 80 1012.5
20260506213005 11 73 3.2 4.8 0.00 0.00 0.00 80 1012.4
20260506212004 11 77 3.2 11.3 0.00 0.00 0.00 80 1012.3
20260506211004 11 66 3.2 14.5 0.00 0.00 0.00 79 1012.4
20260506204005 11 64 9.7 16.1 0.00 0.00 0.00 77 1012.1
20260506203004 12 61 6.4 14.5 0.00 0.00 0.00 76 1012.1
20260506202004 12 76 3.2 12.9 0.00 0.00 0.00 76 1012.1
20260506201005 12 52 8.0 14.5 0.00 0.00 0.00 76 1012.0
20260506200005 12 57 4.8 14.5 0.00 0.00 0.00 75 1011.9
20260506195005 12 46 8.0 16.1 0.00 0.00 0.00 75 1011.8
20260506194005 12 33 8.0 19.3 0.00 0.00 0.00 74 1011.8
20260506193005 12 21 8.0 16.1 0.00 0.00 0.00 74 1011.7
20260506192005 13 34 9.7 19.3 0.00 0.00 0.00 73 1011.7
20260506191005 13 12 8.0 19.3 0.00 0.00 0.00 71 1011.6
20260506185004 13 221 3.2 11.3 0.00 0.00 0.00 67 1011.6
20260506184004 13 207 8.0 12.9 0.00 0.00 0.00 67 1011.5
20260506183005 13 201 8.0 19.3 0.00 0.00 0.00 67 1011.4
20260506182005 14 185 11.3 19.3 0.00 0.00 0.00 67 1011.3
20260506181004 14 193 9.7 20.9 0.00 0.00 0.00 67 1011.4
20260506180005 14 187 12.9 20.9 0.00 0.00 0.00 65 1011.4
20260506175004 15 194 17.7 25.7 0.00 0.00 0.00 64 1011.4
20260506172005 15 222 4.8 14.5 0.00 0.00 0.00 61 1011.3
20260506171004 15 240 6.4 16.1 0.00 0.00 0.00 60 1011.4
20260506170004 15 197 9.7 20.9 0.00 0.00 0.00 61 1011.4
20260506165005 15 209 9.7 19.3 0.00 0.00 0.00 59 1011.4
20260506163004 17 261 8.0 16.1 0.00 0.00 0.00 57 1011.3
20260506162005 16 217 0.0 8.0 0.00 0.00 0.00 54 1011.3
20260506161004 16 190 3.2 11.3 0.00 0.00 0.00 57 1011.4
20260506160005 15 210 4.8 14.5 0.00 0.00 0.00 56 1011.5
20260506155004 16 222 4.8 12.9 0.00 0.00 0.00 55 1011.5
20260506154004 16 214 14.5 20.9 0.00 0.00 0.00 54 1011.6
20260506152004 16 241 9.7 24.1 0.00 0.00 0.00 53 1011.7
20260506151005 16 243 9.7 20.9 0.00 0.00 0.00 51 1011.8
20260506150005 16 252 8.0 14.5 0.00 0.00 0.00 51 1011.9
20260506145004 16 242 8.0 16.1 0.00 0.00 0.00 52 1012.0
20260506144004 16 31 4.8 14.5 0.00 0.00 0.00 50 1012.2
20260506143005 16 280 3.2 19.3 0.00 0.00 0.00 49 1012.4
20260506142005 16 253 6.4 14.5 0.00 0.00 0.00 49 1012.5
20260506141004 16 232 1.6 12.9 0.00 0.00 0.00 48 1012.7
20260506140005 16 86 4.8 11.3 0.00 0.00 0.00 54 1012.7
20260506135005 15 287 4.8 16.1 0.00 0.00 0.00 52 1012.8
20260506134005 16 234 8.0 19.3 0.00 0.00 0.00 52 1013.0
20260506133005 15 195 0.0 9.7 0.00 0.00 0.00 58 1013.1
20260506132005 14 8 4.8 12.9 0.00 0.00 0.00 58 1013.2
20260506131005 14 3 3.2 8.0 0.00 0.00 0.00 59 1013.3
20260506130005 13 92 1.6 4.8 0.00 0.00 0.00 60 1013.5
20260506125004 13 112 1.6 4.8 0.00 0.03 0.00 60 1013.7
20260506124004 13 232 1.6 4.8 0.00 0.03 0.00 61 1013.8
20260506123005 13 204 0.0 4.8 0.00 0.03 0.00 62 1014.0
20260506122005 13 189 3.2 11.3 0.00 0.03 0.00 64 1014.1
20260506121005 13 157 3.2 8.0 0.00 0.03 0.00 65 1014.1
20260506120005 13 224 4.8 11.3 0.00 0.03 0.00 64 1014.3
20260506114005 13 170 8.0 12.9 0.00 0.03 0.00 62 1014.6
20260506113004 13 133 3.2 8.0 0.00 0.03 0.00 65 1014.8
20260506112005 12 45 4.8 11.3 0.00 0.03 0.00 64 1014.7
20260506111004 13 348 4.8 12.9 0.00 0.03 0.00 64 1014.9
20260506110005 12 37 3.2 16.1 0.00 0.03 0.00 67 1015.0
20260506105005 13 253 4.8 14.5 0.00 0.05 0.00 67 1015.0
20260506102004 12 158 3.2 8.0 0.00 0.05 0.00 67 1015.1
20260506101005 12 169 3.2 8.0 0.00 0.05 0.00 68 1015.2
20260506100005 11 174 1.6 9.7 0.00 0.05 0.00 70 1015.2
20260506095004 11 226 1.6 9.7 0.00 0.05 0.00 71 1015.2
20260506094005 11 183 3.2 9.7 0.00 0.05 0.00 73 1015.2
20260506093004 11 190 3.2 4.8 0.00 0.05 0.00 73 1015.1
20260506092004 10 238 1.6 4.8 0.00 0.05 0.00 74 1015.2
20260506091004 10 231 1.6 4.8 0.00 0.05 0.00 74 1015.3